Simultaneous Nadir Overpasses (SNOs) Predictions

Prediction of SNOs between NOAA-19 and TERRA Satellite Orbit:

Table of predicted SNOs for the next 14.0 days since TLE Epoch: 9/8/2018
Index Date (NOAA-19) Time (NOAA-19) Lat,Lon (NOAA-19) SZA (NOAA-19 ) Date (TERRA) Time (TERRA) Lat,Lon (TERRA) SZA (TERRA ) Distance(km) Time Diff (sec)
1 09/09/2018 09:24:13 77.48, 56.52 72.80 09/09/2018 09:24:35 77.46, 56.63 72.80 2.92 22
2 09/09/2018 10:15:11 -77.43,-136.01 107.22 09/09/2018 10:14:03 -77.43,-135.89 107.24 3.11 68
3 09/11/2018 14:57:44 -77.46, 153.29 106.35 09/11/2018 14:58:19 -77.46, 153.16 106.36 3.27 35
4 09/11/2018 15:48:45 77.45, -39.39 73.66 09/11/2018 15:47:45 77.45, -39.23 73.65 3.85 60
5 09/13/2018 20:31:18 77.50,-110.23 74.55 09/13/2018 20:32:01 77.47,-110.20 74.53 3.58 43
6 09/13/2018 21:22:17 -77.45, 57.29 105.47 09/13/2018 21:21:29 -77.44, 57.30 105.50 1.32 48
7 09/16/2018 02:04:50 -77.48, -13.44 104.59 09/16/2018 02:05:44 -77.51, -13.49 104.56 2.97 54
8 09/16/2018 02:55:49 77.44, 154.03 75.40 09/16/2018 02:55:11 77.45, 153.92 75.39 2.96 38
9 09/18/2018 07:38:22 77.50, 83.17 76.30 09/18/2018 07:39:26 77.52, 83.12 76.33 2.00 64
10 09/18/2018 08:29:23 -77.48,-109.47 103.70 09/18/2018 08:28:54 -77.49,-109.37 103.70 2.62 29
11 09/20/2018 13:11:57 -77.56, 179.57 102.79 09/20/2018 13:13:10 -77.51, 179.64 102.81 5.98 73




NCC Satellite Simultaneous Nadir Overpasses (SNOs) Prediction Service
